Location: Tehachapi Municipal Airport
(35.1300°N, 118.4400°W)
Time: 15:44:39
(UTC-07:00)

Daily predictions for brighter satellites

Satellite Brightness Start Highest point End
(mag) Time Altitude Azimuth Time Altitude Azimuth Time Altitude Azimuth
Timation 1 Rocket 4.4 19:52:27 10° NNW 19:58:27 78° ENE 20:04:24 10° SSE
Meteor 1-27 4.4 19:55:01 10° S 20:00:34 53° E 20:06:03 10° NNE
OAO 2 Rocket 4.0 19:57:26 10° W 20:02:30 50° SSW 20:07:30 10° SE
Cosmos 1515 Rocket 4.3 20:00:16 10° SSE 20:04:14 32° E 20:08:12 10° NNE
Cosmos 2278 Rocket 3.0 20:00:16 10° N 20:05:23 34° ENE 20:10:30 10° SE
ASTRO E2 3.4 20:04:26 10° WSW 20:08:10 38° SSE 20:11:54 10° E
OAO 3 Copernicus 4.4 20:06:05 10° WSW 20:11:03 62° SSE 20:16:01 10° E
Cosmos 1825 3.7 20:09:39 10° NNE 20:12:21 18° ENE 20:14:41 11° ESE
Cosmos 1371 Rocket 4.5 20:09:12 10° S 20:14:06 40° ESE 20:19:04 10° NNE
FREGAT/IRIS 4.1 20:15:23 10° S 20:18:08 38° W 20:20:56 10° NNW
Envisat 3.0 20:13:35 10° SSE 20:18:39 78° ENE 20:23:44 10° N
Cosmos 1328 Rocket 3.5 20:14:47 10° S 20:19:10 76° E 20:23:37 10° N
Cosmos 2228 Rocket 3.1 20:20:50 10° S 20:25:08 57° E 20:29:27 10° NNE
Nadezhda 3 Rocket 4.1 20:19:58 10° N 20:26:20 84° W 20:32:41 10° S
CZ-4C R/B 3.4 20:29:40 15° ESE 20:29:49 15° ESE 20:32:51 10° ENE
Meteor 2-10 Rocket 4.3 20:27:52 10° SSE 20:33:00 36° E 20:38:15 10° NNE
Cosmos 1408 3.1 20:30:53 10° N 20:34:22 40° E 20:36:44 18° SE
Cosmos 2056 Rocket 3.7 20:29:56 10° S 20:35:09 50° ESE 20:40:22 10° NNE
Cosmos 1470 Rocket 3.5 20:35:35 10° N 20:40:00 69° E 20:44:22 10° SSE
Sakura Rocket 4.0 20:39:14 10° WSW 20:44:10 36° S 20:46:16 23° SE
SL-16 R/B 2.4 20:38:50 10° S 20:44:14 49° ESE 20:49:41 10° NNE
YAOGAN 6 2.6 20:45:53 12° S 20:49:09 80° WSW 20:52:49 10° NNW
ERS-2 2.7 20:45:40 10° S 20:49:15 56° WSW 20:52:52 10° NNW
Cosmos 1624 Rocket 3.9 20:46:19 10° S 20:51:30 78° ESE 20:56:41 10° NNE
SAR-Lupe-3 4.4 20:48:47 10° NNE 20:52:22 77° ESE 20:55:56 10° S
Cosmos 405 4.1 20:50:50 10° NNE 20:53:43 25° ENE 20:53:43 25° ENE
Resurs 01 Rocket 1.5 20:50:09 15° SSE 20:53:50 84° ENE 20:58:17 10° N
Cosmos 1151 Rocket 3.5 20:50:29 10° SSW 20:54:41 62° W 20:58:56 10° N
Cosmos 2098 Rocket 2.9 20:51:01 10° S 20:55:41 59° E 20:59:23 10° NNE
SJ-11-01 4.2 20:54:14 18° SSE 20:57:38 77° ENE 21:02:19 10° N
Gblst 52 Del rocket 4.3 20:52:10 10° SSW 20:57:39 48° SE 21:02:53 10° ENE
ATLAS 2AS CENTAUR R/B 3.2 20:52:20 10° NW 21:00:00 65° WSW 21:06:01 15° SSE
Spot 2 Rocket 3.4 20:57:35 20° SSE 21:01:08 74° ENE 21:06:13 10° N
Cosmos 1959 Rocket 4.4 20:58:30 10° S 21:04:40 89° E 21:10:49 10° N
Cosmos 1933 Rocket 3.8 21:03:55 10° NNW 21:08:15 66° W 21:11:32 17° S
Cosmos 1869 3.7 21:07:57 10° SSW 21:11:56 63° W 21:15:55 10° N
Cosmos 1441 Rocket 3.2 21:12:11 52° E 21:12:11 52° E 21:15:47 10° NNE
Cosmos 1727 Rocket 4.0 21:09:24 10° N 21:15:31 61° E 21:18:24 32° SSE
Cosmos 1707 Rocket 4.0 21:19:11 40° ENE 21:19:11 40° ENE 21:22:47 10° NNE
USA 186 4.1 21:19:10 11° WSW 21:20:03 12° W 21:21:08 10° WNW
Cosmos 2369 Rocket 4.3 21:19:55 10° NNE 21:21:36 11° NE 21:22:25 11° ENE
Cosmos 2297 3.8 21:16:05 10° NNW 21:21:41 57° ENE 21:23:19 42° ESE
Cosmos 1939 Rocket 4.5 21:20:24 12° SSW 21:23:30 30° W 21:27:00 10° NW
CZ-4B DEB 4.4 21:26:24 79° N 21:26:24 79° N 21:29:43 10° N
Haruka 4.5 21:23:35 10° W 21:27:30 18° SW 21:28:21 17° SSW
Cosmos 2344 3.4 21:20:16 10° SSW 21:27:55 69° ESE 21:35:49 10° NE
ERS-1 Rocket 3.7 21:29:53 36° ENE 21:29:55 36° ENE 21:34:29 10° N
NOSS 3-4 (A) 3.9 21:23:39 10° NNW 21:30:48 69° ENE 21:33:44 40° SE
NOSS 3-4 (C) 3.9 21:23:45 10° NNW 21:30:54 69° ENE 21:33:48 40° SE
Cosmos 1869 Rocket 3.5 21:27:05 10° N 21:31:16 61° ENE 21:31:16 61° ENE
SL-08 RB Rocket 4.3 21:31:59 39° ENE 21:31:59 39° ENE 21:35:45 10° N
Cosmos 1420 Rocket 4.0 21:35:19 57° ESE 21:35:33 57° ESE 21:40:46 10° NNE
ATLAS 5 CENTAUR R/B 4.3 21:35:14 10° N 21:38:46 16° NE 21:40:22 14° ENE
CSL-04 DEB 4.5 21:41:57 78° NE 21:41:57 78° NE 21:46:14 10° N
Cosmos 407 Rocket 3.5 21:38:35 10° NNW 21:43:42 75° WSW 21:44:42 56° S
Cosmos 405 Rocket 3.2 21:45:42 57° W 21:45:46 57° W 21:49:38 10° N
Cosmos 1825 4.5 21:44:53 10° NW 21:47:47 21° W 21:49:35 15° SW
ASTRO E2 4.1 21:44:33 10° WSW 21:46:49 30° WSW 21:46:49 30° WSW
Cosmos 2278 Rocket 3.8 21:44:31 10° NW 21:49:18 28° WSW 21:52:47 16° SSW
SPOT 5 4.1 21:54:00 27° NE 21:54:00 27° NE 21:56:33 10° N
Lacrosse 5 3.9 21:50:01 10° N 21:53:10 16° NNE 21:53:59 16° NE
OAO 3 Copernicus 4.2 21:50:30 10° W 21:55:17 81° W 21:55:17 81° W
SPOT 1/Viking Rocket 4.5 21:57:25 36° NE 21:57:25 36° NE 22:01:20 10° N
H-2A R/B 2.0 22:04:34 78° NNW 22:04:34 78° NNW 22:09:12 10° NNW
Cosmos 1023 Rocket 4.5 22:00:25 10° NNW 22:05:05 74° N 22:05:05 74° N
Cosmos 676 Rocket 4.0 22:02:33 10° NNW 22:07:35 73° W 22:07:35 73° W
MetOp-B 4.2 22:10:38 69° WSW 22:10:46 69° WSW 22:16:07 10° NNW
ARGOS 3.5 22:14:36 53° WSW 22:14:59 54° W 22:20:15 10° NNW
CZ-4C R/B 2.6 22:14:15 21° SW 22:17:31 55° NW 22:23:09 10° NNE
Cosmos 1452 Rocket 4.5 22:15:28 28° WSW 22:17:47 45° WNW 22:22:48 10° N
Cosmos 1943 Rocket 3.8 22:18:21 10° N 22:21:35 23° NE 22:21:35 23° NE
Cosmos 1934 Rocket 4.0 22:25:38 71° NNE 22:25:38 71° NNE 22:30:58 10° N
Cosmos 1140 Rocket 4.2 22:24:16 10° NNW 22:28:28 48° WNW 22:28:28 48° WNW
ATLAS 2A CENTAUR R/B 3.8 22:21:56 10° WSW 22:38:54 54° S 22:38:54 54° S
Terra 3.7 22:57:51 26° N 22:57:51 26° N 22:59:54 10° N
Cosmos 1943 4.5 22:58:27 34° N 22:58:27 34° N 23:01:39 10° NNE
Cosmos 2369 Rocket 3.4 23:00:45 10° NNW 23:04:12 38° NNW 23:04:12 38° NNW
USA 267 3.8 23:15:05 10° NE 23:20:46 54° NNW 23:20:46 54° NNW
ATLAS 5 CENTAUR R/B 3.5 23:18:06 10° NNW 23:21:55 42° NNW 23:21:55 42° NNW
Lacrosse 5 4.3 23:31:43 10° NW 23:33:11 19° NW 23:33:11 19° NW
USA 234 4.4 23:53:06 35° NNE 23:53:06 35° NNE 23:58:17 10° NNW
